If you wish to contribute or participate in the discussions about articles you are invited to join SKYbrary as a registered user

 Actions

Cairns International Airport

From SKYbrary Wiki

YBCS /
Revision as of 20:42, 21 April 2014 by Timo.Kouwenhoven (talk | contribs) (Created page with "{{Airport |Airport_Name=Cairns International Airport |ICAO_Region=APAC |ICAO_Territory=Y |Location=Cairns, Queensland |Coordinates=-16.876537, 145.75404000000003 }} {{APT Show Ha...")
(diff) ← Older revision | Latest revision (diff) | Newer revision → (diff)
Airport
ICAO: YBCS
Summary
Name Cairns International Airport
Region Asia and Pacific
Territory Australia AU.gif
Location Cairns, Queensland
Serving
Coordinates 16° 52' 35.53" S, 145° 45' 14.54" E
Runways
Designator Length Width Surface ROPS
12/30 925 m3,034.777 ft <br /> 18 m59.055 ft <br /> ASP yes/yes
15/33 3197 m10,488.845 ft <br /> 45 m147.638 ft <br /> ASP yes/yes


METAR
Observation YBCS 200100Z AUTO 36012KT 9999 // NCD 32/23 Q1012
Station Cairns Airport
Date/Time 20 October 2021 01:00:00
Wind direction 360°
Wind speed 12 kts
Lowest cloud amount no clouds detected
Temperature 32°C
Dew point 23°C
Humidity 59%
QNH 1012 hPa
Weather condition n/a

Cairns Airport (IATA: CNS) is an international airport in Cairns, Queensland, Australia.